Flag for Poland Weather past 2 weeks in Elbląg, Poland

Now
47 °F

Fog.


Feels Like: 46 °F
Forecast: 39 / 47 °F
Wind: 3 mph from South

Location: Hel

Current Time: Mar 26, 2015 at 11:50:54 PM

Latest Report: Mar 26, 2015 at 11:00 PM


Visibility: 0 mi

Pressure: 29.70 "Hg

Humidity: 98%

Dew point: 47 °F

Location of ElblągLocation

Historic Weather in Elbląg — Graph

°F

Elbląg temperature yesterday

Maximum temperature yesterday: 44 °F (at 12:00 PM)
Minimum temperature yesterday: 31 °F (at 12:00 AM)
Average temperature yesterday: 39 °F

Past Weeks' High & Low Weather Summary

 TemperatureHumidityPressure
High51 °F (Mar 19, 2:00 PM)98% (Mar 26, 8:00 PM)30.77 "Hg (Mar 26, 8:00 PM)
Low28 °F (Mar 19, 6:00 AM)33% (Mar 19, 2:00 PM)29.69 "Hg (Mar 26, 6:00 PM)
Average40 °F76%30.30 "Hg
* Reported Mar 11 9:00 PM — Mar 26 9:00 PM, Elbląg, Weather by CustomWeather, © 2015

Note: Actual official high and low records may vary slightly from our data, if they occured in-between our weather recording intervals... More about our weather records

Advertising

Elbląg weather history for previous 24 hours

 ConditionsComfort  
Time TempWeatherWind HumidityBarometerVisibility
9:00 PM
Thu, Mar 26
48 °FLight rain. Low clouds.3 mph98%29.70 "Hg0 mi
8:00 PM47 °FLight rain. Low clouds.3 mph98%29.70 "Hg0 mi
7:00 PM47 °FLight rain. Overcast.3 mph97%29.70 "Hg1 mi
6:00 PM45 °FLight rain. Overcast.2 mph96%29.69 "Hg1 mi
5:00 PM45 °FLight rain. Overcast.1 mph94%29.70 "Hg1 mi
4:00 PM45 °FSprinkles. Overcast.2 mph92%29.70 "Hg1 mi
3:00 PM45 °FSprinkles. Overcast.3 mph89%29.70 "Hg2 mi
2:00 PM45 °FSprinkles. Overcast.5 mph87%29.71 "Hg2 mi
1:00 PM47 °FSprinkles. Overcast.2 mph86%29.74 "Hg3 mi
12:00 PM46 °FOvercast.3 mph83%29.76 "Hg4 mi
11:00 AM47 °FFog.3 mph77%29.76 "Hg4 mi
10:00 AM45 °FFog.3 mph80%29.78 "Hg4 mi
9:00 AM43 °FFog.3 mph86%29.79 "Hg3 mi
8:00 AM43 °FFog.3 mph86%29.80 "Hg3 mi
7:00 AM41 °FFog.3 mph90%29.81 "Hg2 mi
6:00 AM40 °FFog.3 mph92%29.83 "Hg2 mi
5:00 AM39 °FFog.3 mph92%29.85 "Hg2 mi
4:00 AM40 °FFog.3 mph91%29.86 "Hg2 mi
3:00 AM40 °FFog.3 mph92%29.87 "Hg2 mi
2:00 AM40 °FFog.5 mph90%29.88 "Hg2 mi
1:00 AM41 °FFog.5 mph89%29.91 "Hg2 mi
12:00 AM40 °FFog.5 mph92%29.92 "Hg3 mi
11:00 PM
Wed, Mar 25
38 °FFog.5 mph94%29.94 "Hg3 mi
Weather by CustomWeather, © 2015

See weather overviewHow to use our weather pages